Showing default

MOLNIYA 3-13, 11896

Orbit data source: Space-Track

MOLNIYA 3-13, 11896 is a Commonwealth of Independent States-origin payload satellite that was launched on Fri, 18 Jul 1980 UTC via an MOLNIYA 8K78M launch vehicle from the Plesetsk Missile And Space Complex (PKMTR). Payload-class satellites include a variety of spacecraft equipped with specific instruments for various scientific and technological missions. These include communications satellites like Starlink; space stations such as the ISS; scientific satellites like the Hubble; Earth observation satellites from companies like Planet Labs, Umbra, and HawkEye 360; GPS; miniature CubeSats for education and research; and military/defense satellites.

Loading next visibility...
Identifier
11896, 1980-063A
Orbit
Molniya
Country
Flag of CISCIS
Related business
Manufacturer
NPO PM
Mission
Spacecraft
Bus & Motor
MOLNIYA-3, Unknown motor
Mass
1,750 kg wet, ~1,700 kg dry
Launch date (UTC)
1980-07-18 (46 years ago)
Launch vehicle
MOLNIYA 8K78M
Launch site
Plesetsk Missile And Space Complex (PKMTR)
Object type
Payload
Rocket body
Debris
Shape & HBR
Unknown
Radar Cross Section
Large (>1 m²)

Expand to show TLE details & history
Last TLE update: 3 days ago

TLE from 3 days ago
0 MOLNIYA 3-13
1 11896U 80063A   26170.36028313 -.00000427  00000-0 -40674-4 0  9994
2 11896  63.8212 289.8718 7191371 277.1059  13.2954  2.00646106336441
Epoch: 2026-06-19T08:38Z
TLE epoch observation values (Epoch: 2026-06-19T08:38:48.462Z)
Latitude
0.00005°
Longitude
-107.49019°
Altitude
5,407.934 km
Speed
7.255 km/s
True Right ascension
19h 19m 12s
True Declination
0° 00' 00"
Sunlit
Object was in full shadow at epoch
Visualization orbit readout
Latitude
Unknown
Longitude
Unknown
Altitude
Unknown
Speed
Unknown
Apparent Right ascension
Unknown
Apparent Declination
Unknown
Sunlit
N/A
Visualization observer readout
Local Sidereal Time
23:08:40
Azimuth
Unknown
Elevation
Unknown
Doppler factor
Unknown
Orbital elements
Apogee altitude
39,268.485 km
Perigee altitude
1,079.35 km
Semi-major axis
26,552.054 km
Eccentricity
0.71914
Inclination
63.8212°
RAAN
289.8718°
Arg. of periapsis
277.1059°
True anomaly
83.24194°
Mean anomaly
13.2954°
Eccentric anomaly
39.50913°
Mean motion
0.50164 °/min
Orbital period
717.64 mins
BSTAR
-0.000040674
Loading maneuver chart data...
Computing Atmospheric mass density...
Loading historical data...
Loading historical data...
Loading historical data...
Loading historical data...
Loading historical data...
Loading historical data...
Loading historical data...

Documentation

Showing up to 5 results
|